GW4085 Weather Reports


Display with metric or nautical units.
time (UTC)temp
F
wind
direction
speed
MPH
gust
MPH
rain 1hr
in
rain 24hr
in
rain mn
in
humidity
%
barometer
mb
20260506152907 54 134 1.0 3.0 0.00 0.00 0.00 72 1017.7
20260506152403 53 225 1.0 2.0 0.00 0.00 0.00 71 1017.5
20260506151902 53 343 3.0 3.0 0.00 0.00 0.00 71 1017.5
20260506151358 53 4 1.0 1.0 0.00 0.00 0.00 72 1017.6
20260506150856 52 161 0.0 1.0 0.00 0.00 0.00 75 1017.9
20260506150352 51 308 3.0 3.0 0.00 0.00 0.00 75 1018.0
20260506145849 51 203 1.0 3.0 0.00 0.00 0.00 74 1017.6
20260506145345 50 8 1.0 6.0 0.00 0.00 0.00 75 1017.9
20260506144843 50 325 3.0 6.0 0.00 0.00 0.00 75 1018.0
20260506144339 50 322 2.0 6.0 0.00 0.00 0.00 76 1017.9
20260506143838 50 68 1.0 2.0 0.00 0.00 0.00 78 1017.6
20260506143335 50 55 2.0 5.0 0.00 0.00 0.00 78 1017.6
20260506142833 49 47 2.0 3.0 0.00 0.00 0.00 79 1017.6
20260506142331 49 38 3.0 5.0 0.00 0.00 0.00 80 1017.4
20260506141829 48 17 1.0 2.0 0.00 0.00 0.00 82 1017.6
20260506141327 48 335 2.0 3.0 0.00 0.00 0.00 83 1017.7
20260506140824 48 11 2.0 3.0 0.00 0.00 0.00 83 1017.8
20260506140321 48 11 2.0 5.0 0.00 0.00 0.00 82 1017.6
20260506135818 48 144 0.0 2.0 0.00 0.00 0.00 85 1017.6
20260506135315 47 353 2.0 3.0 0.00 0.00 0.00 85 1017.4
20260506134811 47 150 0.0 3.0 0.00 0.00 0.00 86 1017.4
20260506134308 47 104 0.0 3.0 0.00 0.00 0.00 85 1017.6
20260506133805 47 170 2.0 3.0 0.00 0.00 0.00 86 1017.4
20260506133301 47 298 1.0 5.0 0.00 0.00 0.00 87 1017.4
20260506132758 46 14 3.0 3.0 0.00 0.00 0.00 89 1016.8
20260506132255 46 101 1.0 3.0 0.00 0.00 0.00 91 1017.0
20260506131753 46 12 2.0 3.0 0.00 0.00 0.00 93 1017.3
20260506131249 46 325 3.0 6.0 0.00 0.00 0.00 93 1017.0
20260506130746 46 339 3.0 5.0 0.00 0.00 0.00 94 1017.4
20260506130243 46 132 1.0 3.0 0.00 0.00 0.00 94 1017.4
20260506125741 46 334 2.0 5.0 0.00 0.00 0.00 94 1017.5
20260506125238 45 30 1.0 2.0 0.00 0.00 0.00 95 1017.5
20260506124737 45 118 1.0 2.0 0.00 0.00 0.00 95 1017.4
20260506124234 45 33 1.0 2.0 0.00 0.00 0.00 95 1017.7
20260506123731 45 36 2.0 7.0 0.00 0.00 0.00 95 1017.8
20260506123230 45 102 2.0 3.0 0.00 0.00 0.00 95 1017.7
20260506122726 45 121 1.0 3.0 0.00 0.00 0.00 95 1017.9
20260506122224 45 120 0.0 1.0 0.00 0.00 0.00 95 1017.6
20260506121722 45 94 1.0 2.0 0.00 0.00 0.00 95 1017.7
20260506121218 45 154 0.0 2.0 0.00 0.00 0.00 95 1017.0
20260506120715 45 139 0.0 2.0 0.00 0.00 0.00 95 1017.3
20260506120213 44 16 1.0 2.0 0.00 0.00 0.00 95 1017.1
20260506115711 45 123 1.0 1.0 0.00 0.00 0.00 96 1017.1
20260506115209 44 86 0.0 1.0 0.00 0.00 0.00 96 1016.9
20260506114706 45 169 0.0 2.0 0.00 0.00 0.00 96 1017.0
20260506114204 44 115 0.0 5.0 0.00 0.00 0.00 97 1017.0
20260506113703 44 30 4.0 6.0 0.00 0.00 0.00 97 1016.8
20260506113159 44 60 2.0 5.0 0.00 0.00 0.00 97 1016.6
20260506112655 44 53 1.0 3.0 0.00 0.00 0.00 97 1016.2
20260506112153 44 23 2.0 2.0 0.00 0.00 0.00 97 1016.4
20260506111650 44 147 1.0 2.0 0.00 0.00 0.00 97 1016.2
20260506111148 44 354 1.0 2.0 0.00 0.00 0.00 97 1016.2
20260506110645 44 62 1.0 2.0 0.00 0.00 0.00 97 1016.0
20260506110143 44 140 1.0 1.0 0.00 0.00 0.00 97 1016.1
20260506105639 44 86 1.0 1.0 0.00 0.00 0.00 97 1015.8
20260506105136 44 50 1.0 3.0 0.00 0.00 0.00 97 1015.6
20260506104634 44 42 2.0 3.0 0.00 0.00 0.00 97 1015.6
20260506104131 45 20 2.0 2.0 0.00 0.00 0.00 96 1015.5
20260506103628 44 146 0.0 2.0 0.00 0.00 0.00 96 1015.5
20260506103125 44 139 0.0 3.0 0.00 0.00 0.00 96 1015.6
20260506102624 44 23 2.0 3.0 0.00 0.00 0.00 96 1015.5
20260506102121 44 119 0.0 2.0 0.00 0.00 0.00 96 1015.6
20260506101617 44 106 0.0 2.0 0.00 0.00 0.00 96 1015.3
20260506101114 44 14 2.0 2.0 0.00 0.00 0.00 95 1015.5
20260506100613 45 65 1.0 2.0 0.00 0.00 0.00 95 1015.6
20260506100110 45 11 2.0 2.0 0.00 0.00 0.00 95 1015.2
20260506095609 45 143 0.0 1.0 0.00 0.00 0.00 95 1015.1
20260506095105 45 62 1.0 2.0 0.00 0.00 0.00 95 1015.1
20260506094603 45 61 2.0 3.0 0.00 0.00 0.00 94 1015.0
20260506094100 45 141 0.0 1.0 0.00 0.00 0.00 94 1015.3
20260506093558 45 125 1.0 2.0 0.00 0.00 0.00 94 1014.9
20260506093055 45 129 0.0 1.0 0.00 0.00 0.00 93 1014.4
20260506092553 45 148 0.0 1.0 0.00 0.00 0.00 93 1014.4
20260506092050 45 47 1.0 2.0 0.00 0.00 0.00 93 1014.4
20260506091548 45 154 0.0 1.0 0.00 0.00 0.00 93 1014.9
20260506091045 45 145 0.0 2.0 0.00 0.00 0.00 92 1014.9
20260506090543 45 218 1.0 2.0 0.00 0.00 0.00 92 1015.2
20260506090039 45 59 1.0 2.0 0.00 0.00 0.00 91 1014.2
20260506085536 45 128 0.0 3.0 0.00 0.00 0.00 91 1014.1
20260506085032 45 130 1.0 2.0 0.00 0.00 0.00 91 1014.0
20260506084529 45 15 1.0 2.0 0.00 0.00 0.00 91 1014.0
20260506084025 45 131 0.0 1.0 0.00 0.00 0.00 92 1013.8
20260506083523 45 174 0.0 1.0 0.00 0.00 0.00 92 1013.5
20260506083020 45 352 2.0 3.0 0.00 0.00 0.00 92 1013.2
20260506082517 44 101 1.0 6.0 0.00 0.00 0.00 92 1012.9
20260506082012 44 4 3.0 5.0 0.00 0.00 0.00 92 1012.6
20260506081511 44 14 1.0 2.0 0.00 0.00 0.00 93 1013.0
20260506081008 44 80 1.0 2.0 0.00 0.00 0.00 93 1012.7
20260506080505 44 326 2.0 3.0 0.00 0.00 0.00 93 1013.0
20260506073449 44 7 2.0 2.0 0.00 0.00 0.00 93 1013.1
20260506072946 44 350 0.0 6.0 0.00 0.00 0.00 93 1013.3
20260506072443 44 146 1.0 3.0 0.00 0.00 0.00 93 1013.5
20260506071941 44 343 2.0 3.0 0.00 0.00 0.00 93 1013.6
20260506071439 44 126 0.0 3.0 0.00 0.00 0.00 93 1014.0
20260506070935 44 64 1.0 3.0 0.00 0.00 0.00 93 1013.9
20260506070432 44 77 1.0 2.0 0.00 0.00 0.00 93 1014.0
20260506062410 44 142 1.0 1.0 0.00 0.00 0.00 94 1014.3
20260506061906 44 93 1.0 1.0 0.00 0.00 0.00 94 1014.3
20260506061403 44 81 1.0 2.0 0.00 0.00 0.00 94 1013.9
20260506060900 44 322 2.0 2.0 0.00 0.00 0.00 93 1013.6
20260506060359 44 58 1.0 1.0 0.00 0.00 0.00 94 1014.1
20260506051330 44 9 2.0 2.0 0.00 0.00 0.00 93 1013.8
20260506050828 44 122 0.0 1.0 0.00 0.00 0.00 93 1013.7
20260506050325 44 349 1.0 3.0 0.00 0.00 0.00 93 1013.3
20260506044816 44 356 2.0 2.0 0.00 0.22 0.22 95 1013.4
20260506044314 45 331 0.0 0.0 0.00 0.22 0.22 96 1013.2
20260506043810 45 15 0.0 0.0 0.00 0.22 0.22 96 1013.1
20260506043307 45 350 0.0 2.0 0.00 0.22 0.22 96 1012.9
20260506042806 45 337 1.0 7.0 0.00 0.22 0.22 97 1012.8
20260506042305 45 353 0.0 3.0 0.00 0.22 0.22 97 1012.8
20260506041802 45 317 0.0 0.0 0.00 0.22 0.22 98 1012.8
20260506041259 45 36 0.0 5.0 0.00 0.22 0.22 97 1012.8
20260506040756 45 20 0.0 3.0 0.00 0.22 0.22 97 1012.9
20260506040254 45 357 0.0 0.0 0.00 0.22 0.22 97 1012.8
20260506035750 45 84 0.0 0.0 0.00 0.22 0.22 97 1012.8
20260506035247 45 13 0.0 0.0 0.00 0.22 0.22 97 1012.7
20260506034744 45 340 0.0 0.0 0.00 0.22 0.22 97 1013.1
20260506034241 45 36 2.0 5.0 0.00 0.22 0.22 97 1012.7
20260506033738 45 347 0.0 1.0 0.00 0.22 0.22 97 1012.7
20260506033235 45 16 3.0 3.0 0.00 0.22 0.22 97 1012.8
20260506032727 45 8 3.0 3.0 0.00 0.22 0.22 97 1013.2
20260506032224 45 31 1.0 3.0 0.00 0.22 0.22 97 1013.1
20260506031720 45 300 3.0 5.0 0.00 0.22 0.22 97 1012.8
20260506031218 45 80 1.0 2.0 0.00 0.22 0.22 97 1012.6
20260506030716 45 58 1.0 5.0 0.00 0.22 0.22 97 1012.4
20260506030213 45 56 2.0 5.0 0.00 0.22 0.22 97 1012.2
20260506025710 45 327 1.0 1.0 0.00 0.22 0.22 97 1012.3
20260506025206 45 17 1.0 3.0 0.00 0.22 0.22 97 1012.3
20260506024703 45 7 1.0 2.0 0.00 0.22 0.22 97 1012.2
20260506024159 45 4 1.0 5.0 0.00 0.22 0.22 97 1012.3
20260506023656 45 149 1.0 1.0 0.00 0.22 0.22 97 1012.2
20260506023154 45 2 2.0 2.0 0.00 0.22 0.22 97 1012.1
20260506022650 45 122 1.0 6.0 0.00 0.22 0.22 97 1012.0
20260506022148 45 18 2.0 3.0 0.00 0.22 0.22 97 1011.6
20260506021645 45 329 2.0 3.0 0.00 0.22 0.22 97 1011.6
20260506021142 45 294 1.0 3.0 0.00 0.22 0.22 97 1011.3
20260506020639 45 301 2.0 3.0 0.00 0.22 0.22 97 1011.4
20260506020137 45 346 2.0 3.0 0.00 0.22 0.22 97 1011.6
20260506015634 45 342 2.0 3.0 0.00 0.22 0.22 97 1011.3
20260506015131 45 42 2.0 5.0 0.00 0.22 0.22 97 1011.3
20260506014629 45 121 1.0 3.0 0.00 0.22 0.22 97 1011.1
20260506014124 45 59 3.0 5.0 0.00 0.22 0.22 97 1011.1
20260506013622 45 25 1.0 3.0 0.00 0.22 0.22 97 1011.3
20260506013119 45 2 2.0 6.0 0.00 0.22 0.22 97 1011.2
20260506012615 45 15 3.0 5.0 0.00 0.22 0.22 97 1011.1
20260506012112 45 338 3.0 3.0 0.00 0.22 0.22 97 1011.1
20260506011610 45 46 1.0 5.0 0.00 0.22 0.22 97 1010.9
20260506011106 45 47 2.0 6.0 0.07 0.22 0.22 97 1011.1
20260506010605 45 10 3.0 6.0 0.07 0.22 0.22 97 1011.0
20260506005559 45 55 1.0 3.0 0.00 0.21 0.21 97 1011.0
20260506005055 45 65 1.0 3.0 0.00 0.21 0.21 97 1010.9
20260506004552 45 1 3.0 5.0 0.00 0.21 0.21 97 1010.6
20260506004048 45 343 5.0 6.0 0.00 0.21 0.21 97 1010.8
20260506003545 45 47 1.0 2.0 0.00 0.21 0.21 97 1010.9
20260506003041 45 27 1.0 1.0 0.00 0.21 0.21 97 1010.8
20260506002537 45 351 2.0 6.0 0.00 0.21 0.21 97 1010.4
20260506002033 45 5 6.0 7.0 0.00 0.21 0.21 97 1010.3
20260506001530 45 7 3.0 6.0 0.00 0.21 0.21 97 1010.3
20260506001027 46 1 1.0 5.0 0.00 0.21 0.21 97 1010.3
20260506000525 46 354 4.0 6.0 0.00 0.21 0.21 97 1010.3
20260506000022 46 25 2.0 6.0 0.05 0.21 0.21 97 1010.4
20260505235520 46 328 5.0 7.0 0.05 0.21 0.21 97 1010.2
20260505235016 46 60 2.0 6.0 0.00 0.20 0.20 97 1009.9
20260505234513 46 26 3.0 5.0 0.07 0.20 0.20 97 1009.8
20260505234010 46 83 3.0 3.0 0.07 0.20 0.20 97 1009.9
20260505233508 46 37 2.0 5.0 0.00 0.19 0.19 97 1010.2
20260505233005 46 327 4.0 8.0 0.00 0.19 0.19 97 1010.3
20260505232503 46 287 5.0 8.0 0.00 0.19 0.19 97 1010.3
20260505232000 46 5 2.0 5.0 0.00 0.19 0.19 97 1010.2
20260505231457 46 34 3.0 5.0 0.00 0.19 0.19 97 1009.9
20260505230955 46 18 4.0 6.0 0.00 0.19 0.19 97 1009.7
20260505230452 46 44 2.0 3.0 0.00 0.19 0.19 97 1009.6
20260505225948 46 334 4.0 6.0 0.00 0.19 0.19 97 1009.4
20260505225446 46 341 2.0 8.0 0.00 0.19 0.19 96 1009.4
20260505224942 46 45 4.0 6.0 0.05 0.19 0.19 96 1009.7
20260505224439 47 29 2.0 7.0 0.00 0.18 0.18 95 1009.9
20260505223936 47 29 3.0 7.0 0.19 0.18 0.18 94 1009.8
20260505223433 47 12 3.0 3.0 0.12 0.17 0.17 94 1010.0
20260505222929 47 23 3.0 5.0 0.00 0.15 0.15 93 1010.0
20260505222426 47 33 4.0 8.0 0.00 0.15 0.15 93 1009.7
20260505221921 47 0 5.0 10.0 0.00 0.15 0.15 94 1010.0
20260505221419 48 18 3.0 6.0 0.00 0.15 0.15 94 1009.8
20260505220916 48 117 2.0 2.0 0.00 0.15 0.15 94 1009.2
20260505220413 48 101 2.0 5.0 0.00 0.15 0.15 94 1009.4
20260505215911 48 32 1.0 6.0 0.00 0.15 0.15 94 1009.5
20260505215408 48 18 3.0 6.0 0.00 0.15 0.15 93 1009.5
20260505214906 48 357 3.0 7.0 0.00 0.15 0.15 92 1009.6
20260505214403 49 53 2.0 5.0 0.00 0.15 0.15 92 1009.4
20260505213900 49 30 1.0 6.0 0.00 0.15 0.15 91 1009.3
20260505213358 49 71 3.0 7.0 0.00 0.15 0.15 89 1009.6
20260505212854 49 149 1.0 5.0 0.00 0.15 0.15 89 1009.9
20260505212351 49 4 3.0 6.0 0.00 0.15 0.15 89 1009.7
20260505211847 49 8 2.0 7.0 0.00 0.15 0.15 89 1009.8
20260505211345 49 24 1.0 5.0 0.00 0.15 0.15 88 1009.4
20260505210841 49 0 5.0 6.0 0.00 0.15 0.15 88 1009.6
20260505210339 49 8 3.0 5.0 0.00 0.15 0.15 88 1009.4
20260505205835 49 1 3.0 9.0 0.00 0.15 0.15 88 1009.3
20260505205334 49 352 3.0 7.0 0.00 0.15 0.15 88 1009.4
20260505204830 49 184 3.0 5.0 0.00 0.15 0.15 88 1009.2
20260505204328 49 2 3.0 5.0 0.00 0.15 0.15 88 1009.3
20260505203825 49 35 5.0 7.0 0.00 0.15 0.15 88 1009.3
20260505203321 49 313 5.0 8.0 0.00 0.15 0.15 88 1009.8
20260505202818 49 20 4.0 6.0 0.00 0.15 0.15 89 1010.0
20260505202314 50 336 3.0 5.0 0.00 0.15 0.15 90 1009.7
20260505201811 49 357 4.0 5.0 0.00 0.15 0.15 90 1009.3
20260505201308 49 358 5.0 8.0 0.00 0.15 0.15 91 1009.2
20260505200807 49 5 4.0 7.0 0.00 0.15 0.15 93 1008.7
20260505200303 49 4 4.0 9.0 0.00 0.15 0.15 94 1008.8
20260505195758 50 26 5.0 9.0 0.00 0.15 0.15 95 1008.8
20260505195256 50 165 2.0 3.0 0.00 0.15 0.15 96 1009.0
20260505194753 50 327 3.0 7.0 0.00 0.15 0.15 95 1008.7
20260505194250 50 11 7.0 8.0 0.00 0.15 0.15 95 1009.2
20260505193745 50 352 3.0 7.0 0.00 0.15 0.15 95 1009.0
20260505193243 50 359 5.0 7.0 0.00 0.15 0.15 94 1009.4
20260505192741 51 327 7.0 9.0 0.00 0.15 0.15 93 1009.4
20260505192239 51 1 5.0 8.0 0.00 0.15 0.15 92 1009.4
20260505191737 51 350 3.0 6.0 0.00 0.15 0.15 91 1009.4
20260505191235 52 343 3.0 6.0 0.00 0.15 0.15 90 1009.2
20260505190731 52 347 2.0 6.0 0.00 0.15 0.15 89 1009.0
20260505190231 52 342 7.0 10.0 0.00 0.15 0.15 88 1009.0
20260505185728 52 2 4.0 6.0 0.00 0.15 0.15 88 1008.9
20260505185224 53 25 5.0 9.0 0.00 0.15 0.15 86 1008.7
20260505184720 53 56 4.0 7.0 0.00 0.15 0.15 86 1008.7
20260505184218 53 54 2.0 6.0 0.00 0.15 0.15 85 1008.7
20260505183714 53 32 2.0 5.0 0.00 0.15 0.15 86 1009.0
20260505183212 53 347 5.0 8.0 0.00 0.15 0.15 85 1009.0
20260505182708 53 320 4.0 6.0 0.00 0.15 0.15 85 1009.2
20260505182205 53 329 4.0 6.0 0.00 0.15 0.15 85 1008.9
20260505181701 53 15 3.0 3.0 0.00 0.15 0.15 86 1009.0
20260505181159 53 355 3.0 7.0 0.00 0.15 0.15 86 1008.8
20260505180655 54 19 2.0 5.0 0.00 0.15 0.15 86 1008.5
20260505180153 53 354 7.0 11.0 0.00 0.15 0.15 86 1008.9
20260505175648 54 339 3.0 6.0 0.00 0.15 0.15 85 1008.5
20260505175145 55 10 4.0 6.0 0.00 0.15 0.15 84 1008.5
20260505174642 55 301 3.0 8.0 0.00 0.15 0.15 82 1008.8
20260505174138 55 16 3.0 6.0 0.00 0.15 0.15 82 1008.4
20260505173635 56 342 6.0 8.0 0.00 0.15 0.15 81 1008.7
20260505173131 56 349 5.0 7.0 0.00 0.15 0.15 81 1008.6
20260505172629 56 352 3.0 8.0 0.00 0.15 0.15 82 1008.6
20260505172126 56 24 3.0 8.0 0.00 0.15 0.15 83 1008.8
20260505171620 55 349 5.0 6.0 0.00 0.15 0.15 82 1008.9
20260505171112 55 44 2.0 6.0 0.00 0.15 0.15 83 1008.7
20260505170609 55 9 2.0 6.0 0.00 0.15 0.15 84 1008.5
20260505170106 55 354 5.0 10.0 0.00 0.15 0.15 83 1008.7
20260505165600 55 29 4.0 6.0 0.00 0.15 0.15 83 1008.6
20260505165056 55 358 4.0 6.0 0.00 0.15 0.15 83 1008.6
20260505164552 55 325 5.0 7.0 0.00 0.15 0.15 83 1008.6
20260505164050 55 316 5.0 8.0 0.00 0.15 0.15 83 1008.3
20260505163543 56 359 5.0 9.0 0.00 0.15 0.15 83 1008.3
20260505163039 56 29 4.0 8.0 0.00 0.15 0.15 83 1008.3
20260505162532 56 271 8.0 9.0 0.00 0.15 0.15 82 1008.4
20260505162030 56 355 6.0 9.0 0.00 0.15 0.15 83 1008.5
20260505161526 56 16 3.0 6.0 0.00 0.15 0.15 83 1008.3
20260505161023 56 84 3.0 5.0 0.00 0.15 0.15 83 1008.6
20260505160521 57 113 3.0 7.0 0.00 0.15 0.15 83 1008.7
20260505152957 58 313 2.0 6.0 0.00 0.15 0.15 82 1008.2